Location: Oberwangen
(47.4286°N, 8.9679°E)
Time: 17:32:48
(UTC+00:00)

Cosmos 1441 Rocket - Visible Passes

Search period start: 23 October 2021 00:00
Search period end: 02 November 2021 00:00
Orbit: 494 x 539 km, 81.1° (Epoch: 23 October)

Date Brightness Start Highest point End Pass type
(mag) Time Alt. Az. Time Alt. Az. Time Alt. Az.
23 Oct 4.7 04:13:23 10° SSE 04:16:51 38° E 04:20:20 10° NNE visible
24 Oct 5.0 03:58:50 10° SSE 04:02:11 32° E 04:05:32 10° NNE visible
25 Oct 5.3 03:44:20 10° SSE 03:47:31 27° E 03:50:44 10° NNE visible
25 Oct 4.3 05:20:25 10° WSW 05:23:25 23° WNW 05:26:26 10° NNW visible
26 Oct 5.5 03:29:51 10° SE 03:32:52 24° E 03:35:53 10° NE visible
26 Oct 4.1 05:05:29 10° SW 05:08:40 26° WNW 05:11:51 10° NNW visible
27 Oct 5.7 03:15:25 10° SE 03:18:13 20° E 03:21:01 10° NE visible
27 Oct 3.9 04:50:37 10° SW 04:53:56 30° WNW 04:57:16 10° N visible
28 Oct 5.9 03:02:07 14° ESE 03:03:34 18° E 03:06:06 10° NE visible
28 Oct 3.7 04:37:17 21° SW 04:39:12 35° WNW 04:42:38 10° N visible
29 Oct 6.1 02:49:15 15° E 02:49:15 15° E 02:51:07 10° NE visible
29 Oct 3.4 04:24:22 41° WNW 04:24:28 41° WNW 04:28:01 10° N visible
30 Oct 6.5 02:35:55 10° ENE 02:35:55 10° ENE 02:36:02 10° ENE visible
30 Oct 4.1 04:11:01 33° NNW 04:11:01 33° NNW 04:13:22 10° N visible
31 Oct 5.0 03:57:24 20° N 03:57:24 20° N 03:58:42 10° N visible
01 Nov 5.7 03:43:35 13° N 03:43:35 13° N 03:44:01 10° N visible
